Date String (YYYY-MM-DD hh:mm:ss) UTC,Instrument flags,absolute air pressure of the measurement (hPa),sample flow rate (lpm),inlet stack bypass flow (lpm),air temperature of the measurement (°C),ambient temperature measured by the external sensor (°C),aerosol sample conditioner tube jacket temperature (°C),OPC LED temperature (°C),internal box temperature (°C),relative humidity of the measurement (%),span deviation,mass concentration of particles derived from Lorenz-Mie calculation of OPC scattering (μg/m³),mass concentration of particles derived from Lorenz-Mie calculation of OPC scattering (μg/m³),mass concentration of particles derived from Lorenz-Mie calculation of OPC scattering (μg/m³)
DateTimeUTC,F1_M11,P_M11,Q1_M11,Q2_M11,T1_M11,T2_M11,T3_M11,T4_M11,T5_M11,U1_M11,ZSPAN_M11,X0_M11,X2_M11,X1_M11
2024-02-09 21:00:00,SystemResetWarning,0822.0,5.00,000.00,020.7,020.2,000.0,029.0,022.4,18.6,0000.0,0009.59,0004.56,0004.10
2024-02-09 21:01:00,SystemResetWarning,0822.0,5.00,000.00,020.7,020.2,000.0,029.0,022.4,18.9,0000.0,0009.45,0004.60,0004.15
2024-02-09 21:02:00,SystemResetWarning,0822.0,4.99,000.00,020.7,020.2,000.0,029.0,022.4,18.9,0000.0,0009.92,0004.63,0004.18
2024-02-09 21:03:00,SystemResetWarning,0822.0,5.00,000.00,020.7,020.2,000.0,029.0,022.4,18.7,0000.0,0010.21,0004.70,0004.23
2024-02-09 21:04:00,SystemResetWarning,0821.9,5.00,000.00,020.7,020.2,000.0,029.0,022.4,18.7,0000.0,0009.68,0004.70,0004.26
2024-02-09 21:05:00,SystemResetWarning,0822.0,5.00,000.00,020.7,020.2,000.0,029.0,022.4,18.6,0000.0,0009.99,0004.72,0004.29
2024-02-09 21:06:00,SystemResetWarning,0822.0,4.99,000.00,020.7,020.2,000.0,029.0,022.4,18.7,0000.0,0010.16,0004.74,0004.30
2024-02-09 21:07:00,SystemResetWarning,0821.9,5.00,000.00,020.7,020.2,000.0,029.0,022.4,18.3,0000.0,0010.45,0004.75,0004.30
2024-02-09 21:08:00,SystemResetWarning,0821.9,5.00,000.00,020.7,020.2,000.0,029.0,022.4,18.2,0000.0,0010.81,0004.76,0004.28
2024-02-09 21:09:00,SystemResetWarning,0821.9,5.00,000.00,020.7,020.2,000.0,029.0,022.4,18.4,0000.0,0011.01,0004.74,0004.27
2024-02-09 21:10:00,SystemResetWarning,0821.9,5.00,000.00,020.7,020.2,000.0,029.0,022.4,18.4,0000.0,0010.76,0004.72,0004.25
2024-02-09 21:11:00,SystemResetWarning,0821.8,5.00,000.00,020.7,020.2,000.0,029.0,022.4,18.3,0000.0,0010.69,0004.69,0004.23
2024-02-09 21:12:00,SystemResetWarning,0821.9,5.00,000.00,020.7,020.2,000.0,029.0,022.4,18.6,0000.0,0010.42,0004.66,0004.22
2024-02-09 21:13:00,SystemResetWarning,0821.9,5.00,000.00,020.7,020.2,000.0,029.0,022.4,18.1,0000.0,0009.98,0004.63,0004.20
2024-02-09 21:14:00,SystemResetWarning,0821.9,5.00,000.00,020.7,020.2,000.0,029.0,022.4,18.1,0000.0,0010.14,0004.61,0004.18
2024-02-09 21:15:00,SystemResetWarning,0821.9,5.00,000.00,020.7,020.2,000.0,029.0,022.4,18.0,0000.0,0010.55,0004.59,0004.17
2024-02-09 21:16:00,SystemResetWarning,0821.9,4.98,000.00,020.7,020.3,000.0,029.0,022.4,18.3,0000.0,0010.05,0004.58,0004.16
2024-02-09 21:17:00,SystemResetWarning,0821.8,5.00,000.00,020.7,020.3,000.0,029.0,022.4,18.4,0000.0,0009.93,0004.56,0004.14
2024-02-09 21:18:00,SystemResetWarning,0821.8,5.00,000.00,020.7,020.3,000.0,029.0,022.5,18.7,0000.0,0009.81,0004.56,0004.13
2024-02-09 21:19:00,SystemResetWarning,0821.8,5.00,000.00,020.7,020.3,000.0,029.0,022.5,18.7,0000.0,0009.22,0004.52,0004.12
2024-02-09 21:20:00,SystemResetWarning,0821.8,5.01,000.00,020.7,020.3,000.0,029.0,022.5,18.9,0000.0,0009.35,0004.49,0004.09
2024-02-09 21:21:00,SystemResetWarning,0821.8,5.01,000.00,020.7,020.3,000.0,029.0,022.5,18.4,0000.0,0009.24,0004.47,0004.07
2024-02-09 21:22:00,SystemResetWarning,0821.8,5.00,000.00,020.7,020.3,000.0,029.0,022.5,18.1,0000.0,0009.26,0004.46,0004.05
2024-02-09 21:23:00,SystemResetWarning,0821.8,5.00,000.00,020.8,020.4,000.0,029.1,022.5,18.2,0000.0,0009.48,0004.46,0004.03
2024-02-09 21:24:00,SystemResetWarning,0821.8,5.01,000.00,020.8,020.4,000.0,029.1,022.5,17.8,0000.0,0009.38,0004.46,0004.02
2024-02-09 21:25:00,SystemResetWarning,0821.8,5.00,000.00,020.8,020.4,000.0,029.1,022.5,17.9,0000.0,0009.14,0004.43,0004.01
2024-02-09 21:26:00,SystemResetWarning,0821.8,4.99,000.00,020.8,020.4,000.0,029.1,022.5,18.0,0000.0,0009.97,0004.44,0004.01
2024-02-09 21:27:00,SystemResetWarning,0821.8,5.00,000.00,020.8,020.4,000.0,029.1,022.5,17.9,0000.0,0009.72,0004.40,0003.99
2024-02-09 21:28:00,SystemResetWarning,0821.8,5.00,000.00,020.8,020.4,000.0,029.1,022.5,17.8,0000.0,0009.96,0004.38,0003.99
2024-02-09 21:29:00,SystemResetWarning,0821.7,5.00,000.00,020.8,020.4,000.0,029.1,022.5,17.9,0000.0,0010.00,0004.35,0003.98
2024-02-09 21:30:00,SystemResetWarning,0821.7,5.00,000.00,020.8,020.4,000.0,029.1,022.5,18.2,0000.0,0010.41,0004.35,0003.98
2024-02-09 21:31:00,SystemResetWarning,0821.8,5.00,000.00,020.8,020.4,000.0,029.1,022.5,18.0,0000.0,0010.65,0004.38,0003.99
2024-02-09 21:32:00,SystemResetWarning,0821.7,5.00,000.00,020.8,020.4,000.0,029.1,022.5,17.9,0000.0,0010.83,0004.43,0004.00
2024-02-09 21:33:00,SystemResetWarning,0821.7,5.00,000.00,020.8,020.4,000.0,029.1,022.6,18.0,0000.0,0011.30,0004.44,0004.00
2024-02-09 21:34:00,SystemResetWarning,0821.7,5.00,000.00,020.8,020.4,000.0,029.1,022.6,17.8,0000.0,0011.08,0004.42,0004.00
2024-02-09 21:35:00,SystemResetWarning,0821.7,5.00,000.00,020.8,020.4,000.0,029.1,022.6,17.7,0000.0,0011.04,0004.38,0004.00
2024-02-09 21:36:00,SystemResetWarning,0821.7,5.00,000.00,020.8,020.4,000.0,029.2,022.5,17.8,0000.0,0011.26,0004.37,0003.99
2024-02-09 21:37:00,SystemResetWarning,0821.7,5.00,000.00,020.8,020.4,000.0,029.2,022.5,18.0,0000.0,0010.68,0004.37,0004.00
2024-02-09 21:38:00,SystemResetWarning,0821.8,5.00,000.00,020.8,020.4,000.0,029.2,022.5,18.2,0000.0,0010.79,0004.38,0004.01
2024-02-09 21:39:00,SystemResetWarning,0821.8,5.01,000.00,020.8,020.4,000.0,029.2,022.5,18.0,0000.0,0011.11,0004.43,0004.03
2024-02-09 21:40:00,SystemResetWarning,0821.8,5.00,000.00,020.8,020.4,000.0,029.2,022.5,18.2,0000.0,0010.59,0004.47,0004.06
2024-02-09 21:41:00,SystemResetWarning,0821.8,5.00,000.00,020.8,020.4,000.0,029.2,022.5,17.7,0000.0,0010.75,0004.54,0004.08
2024-02-09 21:42:00,SystemResetWarning,0821.8,5.00,000.00,020.8,020.4,000.0,029.2,022.5,17.8,0000.0,0010.32,0004.55,0004.09
2024-02-09 21:43:00,SystemResetWarning,0821.8,5.00,000.00,020.8,020.4,000.0,029.2,022.5,17.9,0000.0,0010.42,0004.55,0004.10
2024-02-09 21:44:00,SystemResetWarning,0821.8,4.99,000.00,020.8,020.4,000.0,029.2,022.5,18.0,0000.0,0010.35,0004.57,0004.11
2024-02-09 21:45:00,SystemResetWarning,0821.8,5.00,000.00,020.8,020.4,000.0,029.2,022.6,18.2,0000.0,0010.09,0004.59,0004.13
2024-02-09 21:46:00,SystemResetWarning,0821.7,5.00,000.00,020.8,020.4,000.0,029.2,022.6,17.9,0000.0,0010.14,0004.60,0004.13
2024-02-09 21:47:00,SystemResetWarning,0821.8,5.00,000.00,020.9,020.4,000.0,029.2,022.6,17.8,0000.0,0010.22,0004.66,0004.15
2024-02-09 21:48:00,SystemResetWarning,0821.8,5.00,000.00,020.9,020.4,000.0,029.2,022.6,17.9,0000.0,0010.17,0004.69,0004.17
2024-02-09 21:49:00,SystemResetWarning,0821.8,5.01,000.00,020.9,020.4,000.0,029.2,022.6,18.1,0000.0,0010.47,0004.70,0004.18
2024-02-09 21:50:00,SystemResetWarning,0821.8,5.00,000.00,020.9,020.4,000.0,029.2,022.6,17.6,0000.0,0010.34,0004.69,0004.18
2024-02-09 21:51:00,SystemResetWarning,0821.8,5.00,000.00,020.9,020.4,000.0,029.2,022.6,17.7,0000.0,0010.94,0004.71,0004.19
2024-02-09 21:52:00,SystemResetWarning,0821.8,4.99,000.00,020.9,020.4,000.0,029.2,022.6,17.9,0000.0,0011.32,0004.69,0004.19
2024-02-09 21:53:00,SystemResetWarning,0821.8,5.00,000.00,020.9,020.4,000.0,029.2,022.6,17.4,0000.0,0011.09,0004.68,0004.19
2024-02-09 21:54:00,SystemResetWarning,0821.8,4.99,000.00,020.9,020.4,000.0,029.2,022.6,17.4,0000.0,0010.86,0004.68,0004.20
2024-02-09 21:55:00,SystemResetWarning,0821.8,5.00,000.00,020.9,020.4,000.0,029.2,022.6,17.4,0000.0,0010.71,0004.68,0004.22
2024-02-09 21:56:00,SystemResetWarning,0821.8,5.00,000.00,020.9,020.4,000.0,029.2,022.6,17.5,0000.0,0011.28,0004.68,0004.23
2024-02-09 21:57:00,SystemResetWarning,0821.8,5.00,000.00,020.9,020.4,000.0,029.2,022.6,17.6,0000.0,0012.12,0004.71,0004.24
2024-02-09 21:58:00,SystemResetWarning,0821.8,5.00,000.00,020.9,020.4,000.0,029.2,022.6,17.6,0000.0,0012.27,0004.71,0004.24
2024-02-09 21:59:00,SystemResetWarning,0821.7,5.00,000.00,020.9,020.4,000.0,029.2,022.6,17.6,0000.0,0012.27,0004.68,0004.24
